Regional Weather Roundup
Issued by NWS

Home | Current Version | Previous Version | Graphics & Text | Print | Product List | Glossary On
Versions: 1 2 3 4 5 6 7 8 9 10 11 12 13 14 15 16 17 18 19 20 21 22 23 24 25 26 27 28 29 30 31 32 33 34 35 36 37 38 39 40 41 42 43 44 45 46 47 48 49 50
000
ASUS43 KFSD 260310
RWRSD

WEATHER ROUNDUP FOR SOUTH DAKOTA
NATIONAL WEATHER SERVICE SIOUX FALLS SD
1000 PM CDT MON MAY 25 2015

NOTE: "FAIR" INDICATES FEW OR NO CLOUDS BELOW 12,000 FEET WITH NO
SIGNIFICANT WEATHER AND/OR OBSTRUCTIONS TO VISIBILITY.


SDZ001>005-009-010-012>017-260400-
NORTHWEST AND NORTH CENTRAL SOUTH DAKOTA

CITY           SKY/WX    TMP DP  RH WIND       PRES   REMARKS
BUFFALO          N/A     56  51  84 CALM      29.86F
FAITH            N/A     53  51  93 CALM      29.89F
MOBRIDGE       PTCLDY    56  56 100 N7        29.85R
$$

SDZ012>016-024>037-041>051-057-063-072>074-260400-
SOUTHWEST AND SOUTH CENTRAL SOUTH DAKOTA

CITY           SKY/WX    TMP DP  RH WIND       PRES   REMARKS
RAPID CTY ARPT CLOUDY    53  51  93 N7        29.92R
PIERRE         CLOUDY    58  52  80 N6        29.85R
CUSTER         CLOUDY    49  46  90 N3        29.95S
ELLSWORTH AFB  CLOUDY    52  52 100 NE6       29.92
PHILIP         CLOUDY    57  53  86 NE6       29.87R
PINE RIDGE     MOCLDY    53  51  93 NW5       29.89R
SPEARFISH      FAIR      50  50 100 SE8       29.96R FOG
WINNER         CLOUDY    60  55  83 N5        29.84R
$$

SDZ004>011-016>023-039-040-260400-
NORTHEAST SOUTH DAKOTA

CITY           SKY/WX    TMP DP  RH WIND       PRES   REMARKS
ABERDEEN       CLEAR     58  50  75 N6        29.83R
WATERTOWN      PTCLDY    55  51  86 NE9       29.81R
BROOKINGS      PTCLDY    57  54  88 N13       29.82R
SISSETON         N/A     55  52  89 N8        29.80R
$$

SDZ017-020-022-023-036>040-048>070-260400-
SOUTHEAST SOUTH DAKOTA

CITY           SKY/WX    TMP DP  RH WIND       PRES   REMARKS
SIOUX FALLS    PTCLDY    59  57  93 NE3       29.77R
HURON          CLEAR     55  50  83 E6        29.82R
CHAMBERLAIN    MOCLDY    59  49  70 N5        29.84R
MITCHELL       MOCLDY    58  54  86 N9        29.80R
YANKTON        PTCLDY    63  57  82 N6        29.76R
$$

ABBREVIATIONS USED IN REMARKS
   TC - TEMPERATURE IN CELSIUS
  WCI - WIND CHILL INDEX
   HX - HEAT INDEX
  VSB - VISIBILITY




USA.gov is the U.S. government's official web portal to all federal, state and local government web resources and services.